[[{"header":{"parameterUnit":"m.s-1","parameterCategory":1,"la1":30.2991,"la2":30.254,"lo1":-89.0895,"lo2":-89.0444,"dy":0.0017,"dx":0.0017,"nx":28,"ny":28,"refTime":"2025-09-14T09:00:00:Z","depth":0,"parameterNumber":2,"parameterNumberName":"U-component_of_WINDS"},"data":[0,0,0,0,0,0,0,0,0,0,0,0,0,0,0,0,0,0,0,0,0,0,0,0,0,0,0,0,0,0,0,0,0,0,0,0,0,0,0,0,0,0,0,0,0,0,0,0,0,0,0,0,0,0,0,0,0,0,-0.3347,-0.3348,0,-0.3373,-0.3373,-0.3373,-0.3416,-0.3417,-0.3418,-0.3418,-0.3443,-0.3443,-0.3442,0,0,0,0,0,0,0,0,0,0,0,0,0,-0.3334,-0.3334,-0.3347,-0.3348,-0.3348,-0.3373,-0.3373,-0.3373,-0.3416,-0.3417,-0.3418,-0.3419,-0.3443,-0.3443,-0.3442,0,0,0,0,0,0,0,0,0,0,0,0,0,-0.3348,-0.3334,-0.3347,-0.3372,-0.3375,-0.3373,-0.3373,-0.3373,-0.3416,-0.3417,-0.3418,-0.3419,-0.3443,-0.3443,-0.3442,-0.3417,0,0,-0.3442,-0.3442,0,0,0,0,0,0,0,0,-0.3347,-0.3348,-0.3368,-0.3371,-0.3373,-0.3392,-0.3377,-0.3388,-0.3415,-0.34,-0.3418,-0.342,-0.3425,-0.3426,-0.3428,-0.3419,-0.342,-0.3442,-0.3442,-0.3442,-0.3442,0,0,0,0,0,0,0,-0.3346,-0.3347,-0.3357,-0.3368,-0.3372,-0.3382,-0.3385,-0.338,-0.3405,-0.3401,-0.3405,-0.3407,-0.3426,-0.3428,-0.3429,-0.342,-0.3442,-0.3442,-0.3442,-0.3442,-0.3389,-0.3388,0,0,0,0,0,0,-0.3342,-0.3346,-0.3357,-0.3358,-0.3363,-0.3381,-0.3384,-0.3385,-0.3406,-0.341,-0.3406,-0.3409,-0.3428,-0.3429,-0.343,-0.3401,-0.3442,-0.3442,-0.3442,-0.3391,-0.3389,-0.3388,0,0,0,0,0,0,-0.3341,-0.3342,-0.3356,-0.3353,-0.3356,-0.338,-0.338,-0.3385,-0.3387,-0.3409,-0.3414,-0.3403,-0.3429,-0.343,-0.342,-0.3402,-0.3442,-0.3441,-0.3392,-0.339,-0.3388,-0.3342,0,0,0,0,0,0,-0.3341,-0.3342,-0.3333,-0.3353,-0.3356,-0.3345,-0.3379,-0.3385,-0.3387,-0.3391,-0.3408,-0.3412,-0.343,-0.342,-0.342,-0.3403,-0.3441,-0.3394,-0.3391,-0.3389,-0.3345,-0.3339,-0.3334,0,0,0,0,0,-0.334,-0.3319,-0.3332,-0.3333,-0.3345,-0.3344,-0.3346,-0.3368,-0.3385,-0.3376,-0.339,-0.3411,-0.3405,-0.3419,-0.3419,-0.3401,-0.3395,-0.3392,-0.3389,-0.3348,-0.334,-0.3334,0,0,0,0,0,0,-0.3296,-0.3322,-0.3337,-0.3322,-0.333,-0.3351,-0.334,-0.3359,-0.3363,-0.3366,-0.3393,-0.3397,-0.3382,-0.3391,-0.3406,-0.3377,-0.3403,-0.34,-0.3372,-0.3364,-0.3359,-0.3356,-0.3441,0,0,0,0,0,-0.3285,-0.3282,-0.3305,-0.3289,-0.3293,-0.3316,-0.3316,-0.3333,-0.3343,-0.3346,-0.336,-0.3368,-0.3368,-0.3367,-0.3368,-0.3348,-0.3351,-0.3336,-0.333,-0.3325,-0.3321,-0.3309,-0.3302,-0.3378,-0.3378,-0.3378,0,0,-0.3261,-0.3275,-0.3272,-0.3281,-0.329,-0.3285,-0.3319,-0.3314,-0.331,-0.3345,-0.3336,-0.3346,-0.3357,-0.3341,-0.3335,-0.3348,-0.3301,-0.3321,-0.3317,-0.3316,-0.3305,-0.3298,-0.3292,-0.3376,-0.3376,-0.3377,0,0,-0.3215,-0.3226,-0.3213,-0.3221,-0.3234,-0.325,-0.3247,-0.3265,-0.3273,-0.3264,-0.329,-0.3287,-0.3286,-0.3292,-0.3295,-0.3252,-0.327,-0.3252,-0.3219,-0.3207,-0.3201,-0.3196,-0.3178,-0.3172,-0.3248,-0.3248,-0.3248,0,-0.3183,-0.3179,-0.3204,-0.3197,-0.32,-0.3232,-0.3219,-0.3225,-0.3237,-0.3238,-0.3253,-0.3252,-0.3262,-0.3247,-0.3236,-0.3239,-0.3235,-0.3249,-0.32,-0.3195,-0.3191,-0.3174,-0.3167,-0.3246,-0.3246,-0.3246,-0.3246,0,-0.3139,-0.3135,-0.3123,-0.3134,-0.3136,-0.3126,-0.3149,-0.3147,-0.3164,-0.3177,-0.3167,-0.318,-0.3184,-0.3182,-0.3198,-0.3169,-0.3176,-0.3195,-0.3221,-0.318,-0.3165,-0.3159,-0.3242,-0.3243,-0.3244,-0.3244,0,0,-0.3064,-0.309,-0.3085,-0.3089,-0.3106,-0.3103,-0.3094,-0.3098,-0.3095,-0.3103,-0.3095,-0.3094,-0.3111,-0.3115,-0.3132,-0.3122,-0.3084,-0.3142,-0.3143,-0.3129,-0.305,-0.3033,-0.3026,-0.3097,-0.3096,-0.3095,-0.3048,0,-0.302,-0.3006,-0.3028,-0.3009,-0.3005,-0.3036,-0.3028,-0.3036,-0.3049,-0.3047,-0.3061,-0.3058,-0.3083,-0.3085,-0.3077,-0.309,-0.3068,-0.3094,-0.3088,-0.3088,-0.3082,-0.3018,-0.3001,-0.2956,-0.3043,-0.3042,-0.3041,0,-0.2966,-0.2971,-0.2951,-0.2967,-0.2967,-0.2959,-0.2964,-0.2962,-0.2972,-0.2982,-0.2986,-0.3006,-0.2997,-0.3024,-0.3012,-0.3029,-0.3028,-0.3034,-0.3033,-0.3031,-0.306,-0.3013,-0.2942,-0.2934,-0.3032,-0.3033,-0.3034,0,-0.2911,-0.2913,-0.29,-0.2904,-0.2924,-0.2917,-0.2925,-0.2937,-0.2937,-0.2942,-0.2942,-0.2945,-0.2946,-0.2948,-0.2968,-0.2986,-0.2952,-0.2981,-0.2958,-0.2958,-0.2948,-0.2948,-0.2874,-0.2951,-0.2952,-0.2952,-0.2952,0,-0.2858,-0.2843,-0.2876,-0.2868,-0.2852,-0.2879,-0.2863,-0.2874,-0.2884,-0.2878,-0.2905,-0.2899,-0.2927,-0.2924,-0.294,-0.2926,-0.2927,-0.2933,-0.2937,-0.2929,-0.2928,-0.2927,-0.293,-0.295,-0.295,-0.2951,-0.2951,0,-0.2792,-0.2814,-0.2802,-0.2822,-0.2827,-0.2814,-0.2831,-0.2824,-0.2839,-0.2831,-0.283,-0.2853,-0.285,-0.2871,-0.2873,-0.2883,-0.2861,-0.2871,-0.2857,-0.2859,-0.2834,-0.2835,-0.2756,-0.2746,-0.2831,-0.2831,-0.283,0,-0.2756,-0.2745,-0.2764,-0.2762,-0.2769,-0.2766,-0.2767,-0.2792,-0.2792,-0.2802,-0.2794,-0.2793,-0.2794,-0.2788,-0.2804,-0.2805,-0.2814,-0.2787,-0.2815,-0.2807,-0.2811,-0.281,-0.2809,-0.278,-0.2779,-0.2778,-0.2777,0,-0.2687,-0.2698,-0.2699,-0.2702,-0.2702,-0.2706,-0.2712,-0.2709,-0.2736,-0.2734,-0.2732,-0.2733,-0.2734,-0.2732,-0.2736,-0.2744,-0.2764,-0.2769,-0.2763,-0.2753,-0.2744,-0.2746,-0.2838,-0.277,-0.277,-0.2771,-0.2771,-0.2772,-0.2634,-0.2625,-0.2637,-0.2636,-0.2643,-0.2648,-0.2642,-0.2656,-0.2654,-0.2657,-0.2673,-0.2667,-0.2677,-0.2685,-0.269,-0.2686,-0.2699,-0.2691,-0.2689,-0.2686,-0.268,-0.2747,-0.2687,-0.2687,-0.2687,-0.2688,-0.2688,0,-0.2565,-0.2574,-0.2573,-0.258,-0.2579,-0.26,-0.2607,-0.2604,-0.2599,-0.2607,-0.2607,-0.2604,-0.2603,-0.2619,-0.2619,-0.2612,-0.2622,-0.2611,-0.2611,-0.2612,-0.267,-0.2673,-0.2604,-0.2604,-0.2604,-0.2604,-0.2604,-0.2604,-0.2529,-0.2515,-0.2527,-0.2517,-0.2527,-0.2521,-0.2524,-0.2527,-0.2534,-0.2529,-0.2528,-0.2539,-0.255,-0.2551,-0.2551,-0.2556,-0.2553,-0.2539,-0.2547,-0.26,-0.2608,-0.2616,-0.2619,-0.2539,-0.2539,-0.2489,-0.2488,-0.2488]},{"header":{"parameterUnit":"m.s-1","parameterCategory":1,"la1":30.2991,"la2":30.254,"lo1":-89.0895,"lo2":-89.0444,"dy":0.0017,"dx":0.0017,"nx":28,"ny":28,"refTime":"2025-09-14T09:00:00:Z","depth":0,"parameterNumber":3,"parameterNumberName":"V-component_of_WINDS"},"data":[0,0,0,0,0,0,0,0,0,0,0,0,0,0,0,0,0,0,0,0,0,0,0,0,0,0,0,0,0,0,0,0,0,0,0,0,0,0,0,0,0,0,0,0,0,0,0,0,0,0,0,0,0,0,0,0,0,0,-1.4915,-1.4915,0,-1.4944,-1.4944,-1.4944,-1.4945,-1.4945,-1.4945,-1.4944,-1.4972,-1.4973,-1.4974,0,0,0,0,0,0,0,0,0,0,0,0,0,-1.4859,-1.486,-1.4915,-1.4915,-1.4915,-1.4944,-1.4944,-1.4944,-1.4945,-1.4945,-1.4945,-1.4944,-1.4972,-1.4973,-1.4974,0,0,0,0,0,0,0,0,0,0,0,0,0,-1.4885,-1.486,-1.4915,-1.4919,-1.492,-1.4943,-1.4944,-1.4944,-1.4945,-1.4945,-1.4944,-1.4944,-1.4971,-1.4973,-1.4974,-1.4994,0,0,-1.4979,-1.498,0,0,0,0,0,0,0,0,-1.4884,-1.4887,-1.4918,-1.4919,-1.492,-1.494,-1.4935,-1.4961,-1.4946,-1.4936,-1.4944,-1.4944,-1.4962,-1.4964,-1.4971,-1.4996,-1.4997,-1.4979,-1.498,-1.4981,-1.4981,0,0,0,0,0,0,0,-1.4882,-1.4886,-1.4926,-1.4919,-1.492,-1.492,-1.4923,-1.494,-1.4951,-1.4937,-1.4937,-1.494,-1.4962,-1.4969,-1.4971,-1.4997,-1.4979,-1.4981,-1.4982,-1.4982,-1.5041,-1.5041,0,0,0,0,0,0,-1.4879,-1.4884,-1.4925,-1.4927,-1.49,-1.4921,-1.4925,-1.4934,-1.4951,-1.4953,-1.4941,-1.494,-1.4967,-1.4969,-1.4972,-1.4997,-1.4981,-1.4982,-1.4983,-1.504,-1.5041,-1.5041,0,0,0,0,0,0,-1.4878,-1.4883,-1.4924,-1.4906,-1.4911,-1.4923,-1.4933,-1.4935,-1.4942,-1.4954,-1.4956,-1.4946,-1.4966,-1.497,-1.4989,-1.4998,-1.4983,-1.4985,-1.5039,-1.504,-1.5041,-1.5046,0,0,0,0,0,0,-1.4877,-1.4883,-1.489,-1.4906,-1.4912,-1.4941,-1.4934,-1.4936,-1.4945,-1.4945,-1.4959,-1.4961,-1.4966,-1.4987,-1.4991,-1.5,-1.4986,-1.5039,-1.504,-1.5041,-1.5045,-1.5047,-1.5049,0,0,0,0,0,-1.4875,-1.489,-1.4891,-1.4896,-1.4922,-1.4941,-1.4945,-1.495,-1.4946,-1.4954,-1.4962,-1.4961,-1.4996,-1.4989,-1.4993,-1.5003,-1.5038,-1.5039,-1.5041,-1.5045,-1.5047,-1.5049,0,0,0,0,0,0,-1.4874,-1.4892,-1.4893,-1.4914,-1.4926,-1.4941,-1.4951,-1.4953,-1.4966,-1.4965,-1.4971,-1.4974,-1.4993,-1.5,-1.4991,-1.5023,-1.5017,-1.5019,-1.5018,-1.502,-1.5022,-1.502,-1.4987,0,0,0,0,0,-1.4877,-1.4892,-1.4906,-1.4924,-1.493,-1.494,-1.4948,-1.4952,-1.4964,-1.4969,-1.4978,-1.499,-1.5004,-1.5012,-1.5026,-1.5047,-1.505,-1.5056,-1.5057,-1.5059,-1.506,-1.5072,-1.5075,-1.5046,-1.5046,-1.5046,0,0,-1.4882,-1.4894,-1.4902,-1.4924,-1.4934,-1.4948,-1.4944,-1.4959,-1.497,-1.4971,-1.499,-1.4997,-1.501,-1.5031,-1.504,-1.5037,-1.5069,-1.506,-1.5061,-1.5062,-1.5074,-1.5077,-1.5079,-1.5047,-1.5047,-1.5046,0,0,-1.4899,-1.491,-1.4925,-1.4935,-1.4951,-1.4957,-1.4961,-1.4976,-1.4981,-1.5001,-1.5002,-1.5015,-1.5038,-1.5048,-1.5056,-1.5078,-1.5077,-1.5082,-1.5091,-1.5102,-1.5104,-1.5106,-1.5114,-1.5117,-1.5084,-1.5084,-1.5084,0,-1.4903,-1.4926,-1.4933,-1.4949,-1.4958,-1.4961,-1.4977,-1.4986,-1.5004,-1.5011,-1.5007,-1.5038,-1.5047,-1.5069,-1.5075,-1.5081,-1.5086,-1.508,-1.5103,-1.5106,-1.5108,-1.5115,-1.5118,-1.5084,-1.5084,-1.5084,-1.5084,0,-1.493,-1.4946,-1.4957,-1.4976,-1.4986,-1.5002,-1.5011,-1.5021,-1.5024,-1.5031,-1.5051,-1.5062,-1.5078,-1.5084,-1.5086,-1.5107,-1.5104,-1.5102,-1.5096,-1.5111,-1.5118,-1.5121,-1.5085,-1.5084,-1.5084,-1.5084,0,0,-1.4947,-1.497,-1.4974,-1.4983,-1.5,-1.5012,-1.5028,-1.5045,-1.5053,-1.5066,-1.5079,-1.51,-1.5098,-1.5107,-1.5111,-1.5121,-1.5138,-1.5118,-1.5118,-1.5121,-1.5161,-1.5162,-1.5165,-1.5138,-1.5139,-1.5139,-1.516,0,-1.4965,-1.4994,-1.5002,-1.5026,-1.5041,-1.5044,-1.5058,-1.507,-1.5077,-1.509,-1.5098,-1.5113,-1.5109,-1.5115,-1.5125,-1.5133,-1.5146,-1.5132,-1.515,-1.5151,-1.5146,-1.5169,-1.517,-1.5189,-1.5163,-1.5163,-1.5163,0,-1.4991,-1.5005,-1.5031,-1.5047,-1.5054,-1.5066,-1.5082,-1.5095,-1.5108,-1.5113,-1.5124,-1.5127,-1.5144,-1.5137,-1.5159,-1.515,-1.5158,-1.5163,-1.5164,-1.5165,-1.5157,-1.5171,-1.5195,-1.5198,-1.5168,-1.5167,-1.5167,0,-1.5,-1.5026,-1.5045,-1.5052,-1.5072,-1.508,-1.5089,-1.5102,-1.5112,-1.5126,-1.5132,-1.5147,-1.5156,-1.5167,-1.5175,-1.5169,-1.5197,-1.519,-1.5201,-1.52,-1.5206,-1.5205,-1.5232,-1.5212,-1.5212,-1.5211,-1.5211,0,-1.5019,-1.5035,-1.5049,-1.5061,-1.5079,-1.5087,-1.5104,-1.5113,-1.5125,-1.5138,-1.5142,-1.5154,-1.5164,-1.5177,-1.5183,-1.5201,-1.5204,-1.5208,-1.521,-1.5208,-1.5207,-1.5213,-1.5211,-1.5212,-1.5212,-1.5212,-1.5212,0,-1.5032,-1.5042,-1.5063,-1.5081,-1.5085,-1.5098,-1.5112,-1.5123,-1.5131,-1.5148,-1.5152,-1.5164,-1.5181,-1.5189,-1.5209,-1.5213,-1.5233,-1.5234,-1.5229,-1.5229,-1.5239,-1.5238,-1.5269,-1.5274,-1.5251,-1.5251,-1.5251,0,-1.5043,-1.5056,-1.5075,-1.5084,-1.5093,-1.5108,-1.5118,-1.5127,-1.5138,-1.5155,-1.5164,-1.5181,-1.5195,-1.522,-1.523,-1.5246,-1.5247,-1.5257,-1.5249,-1.5247,-1.5247,-1.5246,-1.5247,-1.5258,-1.5258,-1.5258,-1.5258,0,-1.5063,-1.5068,-1.5082,-1.5099,-1.5112,-1.5125,-1.5138,-1.5146,-1.5157,-1.5168,-1.5185,-1.5196,-1.5217,-1.5233,-1.525,-1.5258,-1.526,-1.5261,-1.5264,-1.5262,-1.5258,-1.526,-1.5232,-1.526,-1.526,-1.526,-1.526,-1.526,-1.5075,-1.5086,-1.5102,-1.5118,-1.513,-1.5142,-1.5154,-1.5164,-1.5178,-1.5197,-1.5201,-1.5219,-1.5233,-1.5256,-1.5264,-1.5278,-1.5276,-1.5281,-1.5282,-1.5283,-1.5283,-1.5257,-1.5281,-1.5281,-1.5281,-1.5281,-1.5281,0,-1.5094,-1.5105,-1.512,-1.5139,-1.5152,-1.5154,-1.5169,-1.518,-1.5196,-1.5209,-1.5223,-1.5243,-1.5259,-1.5271,-1.5287,-1.5296,-1.5298,-1.53,-1.5299,-1.5301,-1.5284,-1.528,-1.5299,-1.5299,-1.5299,-1.5299,-1.5299,-1.5299,-1.5106,-1.5125,-1.5132,-1.5157,-1.5167,-1.5185,-1.5194,-1.5206,-1.5216,-1.5239,-1.5252,-1.5261,-1.5273,-1.5291,-1.5306,-1.5309,-1.5315,-1.5317,-1.5321,-1.5304,-1.5302,-1.5301,-1.5296,-1.5319,-1.5319,-1.5336,-1.5337,-1.5337]}]]